When you browse on this site, cookies collect data to enhance your experience and personalize the content and advertising you see.
Visit our Privacy Policy to learn more. By continuing to use the site, you agree to this use of cookies and data.
  • In Latvia
  • List of Countries
  • For 7 days
  • Water Temperature
  • Satellite Maps
  • Weather Map
  • Weather Widgets
  • user-avatar
    Login

    Hourly Weather Melenki

    Today, 23 May, Thursday

    Time Temperature Precipitation Wind Pressure Humidity
    00:00 +14°C° 0 mm 1 mps 736 mmHg 91%
    01:00 +13°C° 0 mm 1 mps 736 mmHg 92%
    02:00 +13°C° 0 mm 1 mps 736 mmHg 93%
    03:00 +13°C° 0 mm 1 mps 735 mmHg 92%
    04:00 +14°C° 0 mm 1 mps 735 mmHg 91%
    05:00 +14°C° 0 mm 1 mps 735 mmHg 91%
    06:00 +16°C° 0 mm 2 mps 735 mmHg 84%
    07:00 +18°C° 0 mm 2 mps 735 mmHg 78%
    08:00 +20°C° 0 mm 2 mps 735 mmHg 71%
    09:00 +20°C° 0.3 mm 2 mps 735 mmHg 68%
    10:00 +21°C° 0.3 mm 3 mps 735 mmHg 66%
    11:00 +22°C° 0.3 mm 3 mps 735 mmHg 63%
    12:00 +22°C° 0.6 mm 3 mps 735 mmHg 67%
    13:00 +21°C° 0.6 mm 3 mps 735 mmHg 70%
    14:00 +21°C° 0.6 mm 3 mps 735 mmHg 74%
    15:00 +20°C° 0.4 mm 3 mps 735 mmHg 78%
    16:00 +19°C° 0.4 mm 4 mps 736 mmHg 81%
    17:00 +18°C° 0.4 mm 4 mps 736 mmHg 85%
    18:00 +15°C° 0 mm 4 mps 736 mmHg 87%
    19:00 +13°C° 0 mm 3 mps 737 mmHg 88%
    20:00 +11°C° 0 mm 3 mps 737 mmHg 89%
    21:00 +10°C° 0 mm 3 mps 737 mmHg 90%
    22:00 +9°C° 0 mm 3 mps 738 mmHg 91%
    23:00 +7°C° 0 mm 2 mps 738 mmHg 92%

    Tomorrow, 24 May, Friday

    Time Temperature Precipitation Wind Pressure Humidity
    00:00 +7°C° 0 mm 2 mps 739 mmHg 92%
    01:00 +6°C° 0 mm 2 mps 739 mmHg 93%
    02:00 +5°C° 0 mm 2 mps 740 mmHg 93%
    03:00 +6°C° 0 mm 2 mps 740 mmHg 91%
    04:00 +6°C° 0 mm 2 mps 740 mmHg 88%
    05:00 +5°C° 0 mm 3 mps 740 mmHg 86%
    06:00 +8°C° 0 mm 3 mps 741 mmHg 78%
    07:00 +10°C° 0 mm 3 mps 741 mmHg 70%
    08:00 +11°C° 0 mm 3 mps 741 mmHg 62%
    09:00 +12°C° 0 mm 3 mps 741 mmHg 58%
    10:00 +14°C° 0 mm 3 mps 741 mmHg 53%
    11:00 +16°C° 0 mm 3 mps 741 mmHg 48%
    12:00 +17°C° 0 mm 3 mps 741 mmHg 47%
    13:00 +17°C° 0 mm 3 mps 741 mmHg 47%
    14:00 +18°C° 0 mm 3 mps 741 mmHg 46%
    15:00 +18°C° 0 mm 3 mps 740 mmHg 48%
    16:00 +18°C° 0 mm 3 mps 740 mmHg 51%
    17:00 +18°C° 0 mm 3 mps 740 mmHg 53%
    18:00 +16°C° 0 mm 3 mps 740 mmHg 61%
    19:00 +14°C° 0 mm 2 mps 740 mmHg 69%
    20:00 +13°C° 0 mm 2 mps 740 mmHg 77%
    21:00 +12°C° 0 mm 2 mps 740 mmHg 79%
    22:00 +12°C° 0 mm 2 mps 740 mmHg 80%
    23:00 +11°C° 0 mm 3 mps 739 mmHg 82%

    Day after tomorrow, 25 May, Saturday

    Time Temperature Precipitation Wind Pressure Humidity
    00:00 +10°C° 0 mm 2 mps 739 mmHg 86%
    01:00 +10°C° 0 mm 2 mps 739 mmHg 90%
    02:00 +10°C° 0 mm 2 mps 739 mmHg 94%
    03:00 +10°C° 0 mm 2 mps 738 mmHg 93%
    04:00 +10°C° 0 mm 3 mps 738 mmHg 93%
    05:00 +10°C° 0 mm 3 mps 738 mmHg 92%
    06:00 +11°C° 0.1 mm 3 mps 738 mmHg 91%
    07:00 +12°C° 0.1 mm 3 mps 737 mmHg 89%
    08:00 +13°C° 0.1 mm 3 mps 737 mmHg 87%
    09:00 +14°C° 0 mm 3 mps 737 mmHg 82%
    10:00 +16°C° 0 mm 3 mps 737 mmHg 77%
    11:00 +18°C° 0 mm 3 mps 736 mmHg 72%
    12:00 +18°C° 0.1 mm 3 mps 736 mmHg 74%
    13:00 +18°C° 0.1 mm 3 mps 736 mmHg 76%
    14:00 +19°C° 0.1 mm 3 mps 735 mmHg 78%
    15:00 +19°C° 0.3 mm 3 mps 735 mmHg 78%
    16:00 +19°C° 0.3 mm 3 mps 734 mmHg 79%
    17:00 +19°C° 0.3 mm 3 mps 734 mmHg 79%
    18:00 +18°C° 0.4 mm 3 mps 733 mmHg 84%
    19:00 +17°C° 0.4 mm 3 mps 733 mmHg 89%
    20:00 +16°C° 0.4 mm 2 mps 733 mmHg 94%
    21:00 +15°C° 0.9 mm 2 mps 733 mmHg 95%
    22:00 +15°C° 0.9 mm 2 mps 732 mmHg 96%
    23:00 +14°C° 0.9 mm 2 mps 732 mmHg 98%

    26 May, Sunday

    Time Temperature Precipitation Wind Pressure Humidity
    00:00 +14°C° 0.1 mm 2 mps 732 mmHg 97%
    01:00 +13°C° 0.1 mm 2 mps 732 mmHg 97%
    02:00 +12°C° 0.1 mm 2 mps 732 mmHg 97%
    03:00 +12°C° 0 mm 2 mps 732 mmHg 96%
    04:00 +12°C° 0 mm 2 mps 732 mmHg 95%
    05:00 +12°C° 0 mm 2 mps 732 mmHg 94%
    06:00 +13°C° 0 mm 2 mps 733 mmHg 87%
    07:00 +13°C° 0 mm 3 mps 733 mmHg 80%
    08:00 +14°C° 0 mm 3 mps 733 mmHg 74%
    09:00 +16°C° 0 mm 3 mps 733 mmHg 67%
    10:00 +17°C° 0 mm 3 mps 733 mmHg 60%
    11:00 +18°C° 0 mm 3 mps 733 mmHg 54%
    12:00 +19°C° 0 mm 3 mps 733 mmHg 52%
    13:00 +20°C° 0 mm 3 mps 733 mmHg 51%
    14:00 +20°C° 0 mm 3 mps 733 mmHg 49%
    15:00 +20°C° 0 mm 3 mps 733 mmHg 51%
    16:00 +19°C° 0 mm 3 mps 733 mmHg 53%
    17:00 +19°C° 0 mm 2 mps 732 mmHg 56%
    18:00 +17°C° 0 mm 2 mps 732 mmHg 63%
    19:00 +16°C° 0 mm 2 mps 732 mmHg 71%
    20:00 +14°C° 0 mm 2 mps 732 mmHg 78%
    21:00 +13°C° 0 mm 2 mps 732 mmHg 82%
    22:00 +13°C° 0 mm 2 mps 732 mmHg 85%
    23:00 +12°C° 0 mm 2 mps 732 mmHg 89%

    27 May, Monday

    Time Temperature Precipitation Wind Pressure Humidity
    00:00 +12°C° 0.5 mm 2 mps 732 mmHg 90%
    01:00 +11°C° 0.5 mm 3 mps 732 mmHg 92%
    02:00 +10°C° 0.5 mm 3 mps 732 mmHg 94%
    03:00 +10°C° 0.2 mm 4 mps 732 mmHg 93%
    04:00 +8°C° 0.2 mm 4 mps 732 mmHg 93%
    05:00 +8°C° 0.2 mm 4 mps 733 mmHg 92%
    06:00 +8°C° 0.2 mm 5 mps 733 mmHg 87%
    07:00 +9°C° 0.2 mm 5 mps 733 mmHg 81%
    08:00 +9°C° 0.2 mm 6 mps 734 mmHg 76%
    09:00 +10°C° 0.1 mm 6 mps 734 mmHg 71%
    10:00 +10°C° 0.1 mm 6 mps 735 mmHg 67%
    11:00 +10°C° 0.1 mm 6 mps 735 mmHg 62%
    12:00 +11°C° 0 mm 6 mps 736 mmHg 61%
    13:00 +11°C° 0 mm 6 mps 736 mmHg 60%
    14:00 +13°C° 0 mm 6 mps 736 mmHg 59%
    15:00 +13°C° 0 mm 5 mps 737 mmHg 60%
    16:00 +13°C° 0 mm 4 mps 737 mmHg 62%
    17:00 +13°C° 0 mm 3 mps 737 mmHg 63%
    18:00 +13°C° 0 mm 3 mps 738 mmHg 67%
    19:00 +13°C° 0 mm 2 mps 738 mmHg 72%
    20:00 +12°C° 0 mm 2 mps 739 mmHg 76%
    21:00 +10°C° 0 mm 2 mps 739 mmHg 79%
    22:00 +9°C° 0 mm 2 mps 739 mmHg 83%
    23:00 +9°C° 0 mm 2 mps 740 mmHg 86%

    28 May, Tuesday

    Time Temperature Precipitation Wind Pressure Humidity
    00:00 +8°C° 0 mm 2 mps 740 mmHg 89%
    01:00 +7°C° 0 mm 2 mps 741 mmHg 91%
    02:00 +7°C° 0 mm 2 mps 741 mmHg 93%
    03:00 +7°C° 0 mm 2 mps 741 mmHg 90%
    04:00 +9°C° 0 mm 1 mps 742 mmHg 87%
    05:00 +10°C° 0 mm 1 mps 742 mmHg 83%
    06:00 +12°C° 0 mm 1 mps 742 mmHg 76%
    07:00 +14°C° 0 mm 2 mps 742 mmHg 68%
    08:00 +16°C° 0 mm 2 mps 743 mmHg 60%
    09:00 +18°C° 0 mm 2 mps 743 mmHg 57%
    10:00 +19°C° 0 mm 2 mps 742 mmHg 54%
    11:00 +21°C° 0 mm 2 mps 742 mmHg 51%
    12:00 +22°C° 0 mm 3 mps 742 mmHg 51%
    13:00 +24°C° 0 mm 3 mps 742 mmHg 51%
    14:00 +23°C° 0 mm 4 mps 742 mmHg 51%
    15:00 +22°C° 0.1 mm 3 mps 741 mmHg 62%
    16:00 +20°C° 0.1 mm 3 mps 741 mmHg 73%
    17:00 +19°C° 0.1 mm 2 mps 741 mmHg 83%
    18:00 +18°C° 0 mm 3 mps 741 mmHg 87%
    19:00 +18°C° 0 mm 3 mps 740 mmHg 91%
    20:00 +17°C° 0 mm 3 mps 740 mmHg 94%
    21:00 +17°C° 0.2 mm 3 mps 740 mmHg 95%
    22:00 +17°C° 0.2 mm 3 mps 740 mmHg 95%
    23:00 +17°C° 0.2 mm 3 mps 740 mmHg 96%
    Show more